Time,TemperatureF,DewpointF,PressureIn,WindDirection,WindDirectionDegrees,WindSpeedMPH,WindSpeedGustMPH,Humidity,HourlyPrecipIn,Conditions,Clouds,dailyrainin,SoftwareType,DateUTC
2013-08-24 00:00:00,87.1,62.5,29.95,ENE,60,0.0,0.0,44,0.00,,---,0.00,VWS V14.00,2013-08-24 05:00:00,
2013-08-24 00:10:00,86.9,63.0,29.95,ENE,59,0.0,0.0,45,0.00,,---,0.00,VWS V14.00,2013-08-24 05:10:00,
2013-08-24 00:20:00,86.5,62.7,29.95,ENE,62,0.0,0.0,45,0.00,,---,0.00,VWS V14.00,2013-08-24 05:20:00,
2013-08-24 00:30:00,86.2,63.0,29.95,ENE,60,0.0,0.0,46,0.00,,---,0.00,VWS V14.00,2013-08-24 05:30:00,
2013-08-24 00:40:00,85.5,63.0,29.95,ENE,60,0.0,0.0,47,0.00,,---,0.00,VWS V14.00,2013-08-24 05:40:00,
2013-08-24 00:50:00,84.9,63.1,29.95,ENE,63,0.0,0.0,48,0.00,,---,0.00,VWS V14.00,2013-08-24 05:50:00,
2013-08-24 01:00:00,84.6,63.3,29.95,ENE,62,0.0,0.0,49,0.00,,---,0.00,VWS V14.00,2013-08-24 06:00:00,
2013-08-24 01:10:00,84.2,63.6,29.95,ENE,61,0.0,0.0,50,0.00,,---,0.00,VWS V14.00,2013-08-24 06:10:00,
2013-08-24 01:20:00,84.2,63.6,29.95,ENE,61,0.0,0.0,50,0.00,,---,0.00,VWS V14.00,2013-08-24 06:20:00,
2013-08-24 01:30:00,84.0,64.0,29.95,ENE,63,0.0,0.0,51,0.00,,---,0.00,VWS V14.00,2013-08-24 06:30:00,
2013-08-24 01:40:00,83.8,63.8,29.95,ENE,58,0.0,0.0,51,0.00,,---,0.00,VWS V14.00,2013-08-24 06:40:00,
2013-08-24 01:50:00,83.7,64.2,29.95,ENE,60,0.0,0.0,52,0.00,,---,0.00,VWS V14.00,2013-08-24 06:50:00,
2013-08-24 02:00:00,83.7,64.2,29.95,East,84,0.0,0.0,52,0.00,,---,0.00,VWS V14.00,2013-08-24 07:00:00,
2013-08-24 02:10:00,83.5,64.6,29.95,East,83,0.0,0.0,53,0.00,,---,0.00,VWS V14.00,2013-08-24 07:10:00,
2013-08-24 02:20:00,83.3,64.4,29.95,East,84,0.0,0.0,53,0.00,,---,0.00,VWS V14.00,2013-08-24 07:20:00,
2013-08-24 02:30:00,83.1,64.8,29.95,ENE,78,0.0,0.0,54,0.00,,---,0.00,VWS V14.00,2013-08-24 07:30:00,
2013-08-24 02:40:00,82.6,64.8,29.95,ENE,77,0.0,0.0,55,0.00,,---,0.00,VWS V14.00,2013-08-24 07:40:00,
2013-08-24 02:50:00,82.6,64.8,29.95,East,80,0.0,0.0,55,0.00,,---,0.00,VWS V14.00,2013-08-24 07:50:00,
2013-08-24 03:00:00,82.6,64.8,29.95,East,87,0.0,0.0,55,0.00,,---,0.00,VWS V14.00,2013-08-24 08:00:00,
2013-08-24 03:10:00,82.6,64.8,29.95,ESE,110,0.0,0.0,55,0.00,,---,0.00,VWS V14.00,2013-08-24 08:10:00,
2013-08-24 03:20:00,82.4,65.1,29.95,SE,126,0.0,0.0,56,0.00,,---,0.00,VWS V14.00,2013-08-24 08:20:00,
2013-08-24 03:30:00,82.0,64.8,29.95,SE,127,0.0,0.0,56,0.00,,---,0.00,VWS V14.00,2013-08-24 08:30:00,
2013-08-24 03:40:00,81.9,65.2,29.95,SE,128,0.0,0.0,57,0.00,,---,0.00,VWS V14.00,2013-08-24 08:40:00,
2013-08-24 03:50:00,81.5,65.3,29.95,SE,127,0.0,0.0,58,0.00,,---,0.00,VWS V14.00,2013-08-24 08:50:00,
2013-08-24 04:00:00,81.3,65.6,29.95,SE,126,0.0,0.0,59,0.00,,---,0.00,VWS V14.00,2013-08-24 09:00:00,
2013-08-24 04:10:00,81.3,65.6,29.98,SE,127,0.0,0.0,59,0.00,,---,0.00,VWS V14.00,2013-08-24 09:10:00,
2013-08-24 04:20:00,81.1,65.5,29.98,SE,125,0.0,0.0,59,0.00,,---,0.00,VWS V14.00,2013-08-24 09:20:00,
2013-08-24 04:30:00,80.6,65.4,29.98,SE,127,0.0,0.0,60,0.00,,---,0.00,VWS V14.00,2013-08-24 09:30:00,
2013-08-24 04:40:00,80.2,65.6,29.98,SE,127,0.0,0.0,61,0.00,,---,0.00,VWS V14.00,2013-08-24 09:40:00,
2013-08-24 04:50:00,79.7,65.5,29.98,SE,127,0.0,0.0,62,0.00,,---,0.00,VWS V14.00,2013-08-24 09:50:00,
2013-08-24 05:00:00,79.0,65.3,29.98,SE,127,0.0,0.0,63,0.00,,---,0.00,VWS V14.00,2013-08-24 10:00:00,
2013-08-24 05:10:00,78.8,65.6,29.98,SE,126,0.0,0.0,64,0.00,,---,0.00,VWS V14.00,2013-08-24 10:10:00,
2013-08-24 05:20:00,78.8,66.1,29.98,SE,126,0.0,0.0,65,0.00,,---,0.00,VWS V14.00,2013-08-24 10:20:00,
2013-08-24 05:30:00,78.8,66.1,29.98,SE,126,0.0,0.0,65,0.00,,---,0.00,VWS V14.00,2013-08-24 10:30:00,
2013-08-24 05:40:00,78.8,66.1,29.98,SE,128,0.0,0.0,65,0.00,,---,0.00,VWS V14.00,2013-08-24 10:40:00,
2013-08-24 05:50:00,78.6,65.9,29.98,SE,126,0.0,0.0,65,0.00,,---,0.00,VWS V14.00,2013-08-24 10:50:00,
2013-08-24 06:00:00,78.3,66.0,29.98,SE,127,0.0,0.0,66,0.00,,---,0.00,VWS V14.00,2013-08-24 11:00:00,
2013-08-24 06:10:00,77.7,65.9,29.98,SE,127,0.0,0.0,67,0.00,,---,0.00,VWS V14.00,2013-08-24 11:10:00,
2013-08-24 06:20:00,77.5,66.2,29.98,SE,127,0.0,0.0,68,0.00,,---,0.00,VWS V14.00,2013-08-24 11:20:00,
2013-08-24 06:30:00,77.5,66.2,29.98,SE,128,0.0,0.0,68,0.00,,---,0.00,VWS V14.00,2013-08-24 11:30:00,
2013-08-24 06:40:00,77.5,66.6,29.98,SE,127,0.0,0.0,69,0.00,,---,0.00,VWS V14.00,2013-08-24 11:40:00,
2013-08-24 06:50:00,78.1,66.7,29.98,SE,128,0.0,0.0,68,0.00,,---,0.00,VWS V14.00,2013-08-24 11:50:00,
2013-08-24 07:00:00,78.4,67.0,29.98,SE,128,0.0,0.0,68,0.00,,---,0.00,VWS V14.00,2013-08-24 12:00:00,
2013-08-24 07:10:00,78.4,67.0,30.01,SE,127,0.0,0.0,68,0.00,,---,0.00,VWS V14.00,2013-08-24 12:10:00,
2013-08-24 07:20:00,78.6,67.2,30.01,SE,125,0.0,0.0,68,0.00,,---,0.00,VWS V14.00,2013-08-24 12:20:00,
2013-08-24 07:30:00,78.8,67.4,30.01,SE,125,0.0,0.0,68,0.00,,---,0.00,VWS V14.00,2013-08-24 12:30:00,
2013-08-24 07:40:00,78.8,67.4,30.01,SE,126,0.0,0.0,68,0.00,,---,0.00,VWS V14.00,2013-08-24 12:40:00,
2013-08-24 07:50:00,79.0,67.5,30.01,SE,129,0.0,0.0,68,0.00,,---,0.00,VWS V14.00,2013-08-24 12:50:00,
2013-08-24 08:00:00,79.3,67.9,30.01,SE,129,0.0,0.0,68,0.00,,---,0.00,VWS V14.00,2013-08-24 13:00:00,
2013-08-24 08:10:00,79.7,68.2,30.01,SE,126,0.0,0.0,68,0.00,,---,0.00,VWS V14.00,2013-08-24 13:10:00,
2013-08-24 08:20:00,80.2,68.7,30.01,ESE,123,0.0,0.0,68,0.00,,---,0.00,VWS V14.00,2013-08-24 13:20:00,
2013-08-24 08:30:00,80.8,69.2,30.01,SE,128,0.0,0.0,68,0.00,,---,0.00,VWS V14.00,2013-08-24 13:30:00,
2013-08-24 08:40:00,81.5,69.5,30.01,SE,129,0.0,0.0,67,0.00,,---,0.00,VWS V14.00,2013-08-24 13:40:00,
2013-08-24 08:50:00,82.0,69.6,30.01,SE,128,0.0,0.0,66,0.00,,---,0.00,VWS V14.00,2013-08-24 13:50:00,
2013-08-24 09:00:00,82.6,69.6,30.04,SE,129,0.0,0.0,65,0.00,,---,0.00,VWS V14.00,2013-08-24 14:00:00,
2013-08-24 09:10:00,83.3,69.9,30.04,SE,124,0.0,0.0,64,0.00,,---,0.00,VWS V14.00,2013-08-24 14:10:00,
2013-08-24 09:20:00,84.0,70.1,30.04,ESE,123,0.0,0.0,63,0.00,,---,0.00,VWS V14.00,2013-08-24 14:20:00,
2013-08-24 09:30:00,84.7,70.3,30.04,East,90,0.0,0.0,62,0.00,,---,0.00,VWS V14.00,2013-08-24 14:30:00,
2013-08-24 09:40:00,85.5,70.5,30.04,ESE,103,0.0,0.0,61,0.00,,---,0.00,VWS V14.00,2013-08-24 14:40:00,
2013-08-24 09:50:00,86.0,70.5,30.04,ESE,102,0.0,0.0,60,0.00,,---,0.00,VWS V14.00,2013-08-24 14:50:00,
2013-08-24 10:00:00,86.7,70.7,30.04,ESE,105,0.0,0.0,59,0.00,,---,0.00,VWS V14.00,2013-08-24 15:00:00,
2013-08-24 10:10:00,87.3,70.7,30.04,East,101,0.0,0.0,58,0.00,,---,0.00,VWS V14.00,2013-08-24 15:10:00,
2013-08-24 10:20:00,87.8,70.2,30.04,ESE,104,0.0,0.0,56,0.00,,---,0.00,VWS V14.00,2013-08-24 15:20:00,
2013-08-24 10:30:00,88.3,70.1,30.04,ESE,102,0.0,0.0,55,0.00,,---,0.00,VWS V14.00,2013-08-24 15:30:00,
2013-08-24 10:40:00,89.1,70.3,30.04,East,84,0.0,0.0,54,0.00,,---,0.00,VWS V14.00,2013-08-24 15:40:00,
2013-08-24 10:50:00,89.8,69.8,30.04,ENE,73,0.0,0.0,52,0.00,,---,0.00,VWS V14.00,2013-08-24 15:50:00,
2013-08-24 11:00:00,90.1,70.2,30.04,East,83,0.0,0.0,52,0.00,,---,0.00,VWS V14.00,2013-08-24 16:00:00,
2013-08-24 11:10:00,91.0,69.8,30.04,ENE,74,0.0,0.0,50,0.00,,---,0.00,VWS V14.00,2013-08-24 16:10:00,
2013-08-24 11:20:00,91.8,69.9,30.04,NE,53,0.0,0.0,49,0.00,,---,0.00,VWS V14.00,2013-08-24 16:20:00,
2013-08-24 11:30:00,92.3,69.8,30.04,ENE,68,0.0,0.0,48,0.00,,---,0.00,VWS V14.00,2013-08-24 16:30:00,
2013-08-24 11:40:00,93.0,69.2,30.04,East,94,0.0,0.0,46,0.00,,---,0.00,VWS V14.00,2013-08-24 16:40:00,
2013-08-24 11:50:00,93.4,68.9,30.04,East,93,0.0,0.0,45,0.00,,---,0.00,VWS V14.00,2013-08-24 16:50:00,
2013-08-24 12:00:00,94.5,68.5,30.04,NE,54,0.0,2.7,43,0.00,,---,0.00,VWS V14.00,2013-08-24 17:00:00,
2013-08-24 12:10:00,95.2,67.8,30.04,ENE,63,0.0,2.7,41,0.00,,---,0.00,VWS V14.00,2013-08-24 17:10:00,
2013-08-24 12:20:00,95.2,67.1,30.04,ENE,59,0.0,2.7,40,0.00,,---,0.00,VWS V14.00,2013-08-24 17:20:00,
2013-08-24 12:30:00,95.5,66.7,30.04,NE,51,0.0,0.0,39,0.00,,---,0.00,VWS V14.00,2013-08-24 17:30:00,
2013-08-24 12:40:00,96.4,65.9,30.01,NE,44,0.0,4.0,37,0.00,,---,0.00,VWS V14.00,2013-08-24 17:40:00,
2013-08-24 12:50:00,96.1,64.8,30.01,ENE,58,0.0,2.7,36,0.00,,---,0.00,VWS V14.00,2013-08-24 17:50:00,
2013-08-24 13:00:00,95.9,64.7,30.01,SE,139,0.0,2.7,36,0.00,,---,0.00,VWS V14.00,2013-08-24 18:00:00,
2013-08-24 13:10:00,94.6,63.6,30.01,ENE,66,0.0,2.7,36,0.00,,---,0.00,VWS V14.00,2013-08-24 18:10:00,
2013-08-24 13:20:00,94.3,64.0,30.01,SE,125,0.0,3.6,37,0.00,,---,0.00,VWS V14.00,2013-08-24 18:20:00,
2013-08-24 13:30:00,94.8,63.7,30.01,ENE,63,0.0,5.4,36,0.00,,---,0.00,VWS V14.00,2013-08-24 18:30:00,
2013-08-24 13:40:00,97.0,65.6,30.01,NE,43,0.0,4.5,36,0.00,,---,0.00,VWS V14.00,2013-08-24 18:40:00,
2013-08-24 13:50:00,98.8,64.7,30.01,ESE,110,0.0,6.7,33,0.00,,---,0.00,VWS V14.00,2013-08-24 18:50:00,
2013-08-24 14:00:00,99.0,63.1,30.01,East,81,0.0,3.1,31,0.00,,---,0.00,VWS V14.00,2013-08-24 19:00:00,
2013-08-24 14:10:00,99.0,63.1,30.01,ENE,70,3.1,7.4,31,0.00,,---,0.00,VWS V14.00,2013-08-24 19:10:00,
2013-08-24 14:20:00,100.4,63.4,30.01,South,183,0.0,4.9,30,0.00,,---,0.00,VWS V14.00,2013-08-24 19:20:00,
2013-08-24 14:30:00,100.2,62.2,30.01,ENE,78,0.0,6.3,29,0.00,,---,0.00,VWS V14.00,2013-08-24 19:30:00,
2013-08-24 14:40:00,99.5,61.6,29.98,East,80,0.0,7.4,29,0.00,,---,0.00,VWS V14.00,2013-08-24 19:40:00,
2013-08-24 14:50:00,99.5,61.6,29.98,ENE,60,0.0,4.5,29,0.00,,---,0.00,VWS V14.00,2013-08-24 19:50:00,
2013-08-24 15:00:00,99.5,61.6,29.98,ENE,58,0.0,4.0,29,0.00,,---,0.00,VWS V14.00,2013-08-24 20:00:00,
2013-08-24 15:10:00,99.9,61.0,29.98,East,100,0.0,8.7,28,0.00,,---,0.00,VWS V14.00,2013-08-24 20:10:00,
2013-08-24 15:20:00,100.0,61.1,29.98,East,80,0.0,5.4,28,0.00,,---,0.00,VWS V14.00,2013-08-24 20:20:00,
2013-08-24 15:30:00,100.0,60.1,29.98,South,179,3.1,6.9,27,0.00,,---,0.00,VWS V14.00,2013-08-24 20:30:00,
2013-08-24 15:40:00,100.4,60.4,29.95,ENE,75,0.0,5.8,27,0.00,,---,0.00,VWS V14.00,2013-08-24 20:40:00,
2013-08-24 15:50:00,100.4,60.4,29.95,East,79,0.0,6.7,27,0.00,,---,0.00,VWS V14.00,2013-08-24 20:50:00,
2013-08-24 16:00:00,100.4,60.4,29.95,NNE,19,0.0,6.3,27,0.00,,---,0.00,VWS V14.00,2013-08-24 21:00:00,
2013-08-24 16:10:00,100.6,59.5,29.95,NE,51,0.0,5.4,26,0.00,,---,0.00,VWS V14.00,2013-08-24 21:10:00,
2013-08-24 16:20:00,100.0,59.0,29.95,SSE,148,0.0,9.2,26,0.00,,---,0.00,VWS V14.00,2013-08-24 21:20:00,
2013-08-24 16:30:00,99.7,58.7,29.95,SSE,166,0.0,4.5,26,0.00,,---,0.00,VWS V14.00,2013-08-24 21:30:00,
2013-08-24 16:40:00,99.5,58.6,29.95,NNE,19,0.0,5.8,26,0.00,,---,0.00,VWS V14.00,2013-08-24 21:40:00,
2013-08-24 16:50:00,98.8,58.0,29.95,ENE,65,0.0,4.5,26,0.00,,---,0.00,VWS V14.00,2013-08-24 21:50:00,
2013-08-24 17:00:00,98.8,58.0,29.95,ENE,67,0.0,4.5,26,0.00,,---,0.00,VWS V14.00,2013-08-24 22:00:00,
2013-08-24 17:10:00,97.9,58.2,29.95,NE,55,0.0,3.1,27,0.00,,---,0.00,VWS V14.00,2013-08-24 22:10:00,
2013-08-24 17:20:00,97.9,58.2,29.95,NE,50,0.0,4.9,27,0.00,,---,0.00,VWS V14.00,2013-08-24 22:20:00,
2013-08-24 17:30:00,97.9,58.2,29.95,SE,126,0.0,5.4,27,0.00,,---,0.00,VWS V14.00,2013-08-24 22:30:00,
2013-08-24 17:40:00,97.7,58.1,29.95,SE,133,0.0,4.0,27,0.00,,---,0.00,VWS V14.00,2013-08-24 22:40:00,
2013-08-24 17:50:00,97.3,57.8,29.95,ESE,121,0.0,2.7,27,0.00,,---,0.00,VWS V14.00,2013-08-24 22:50:00,
2013-08-24 18:00:00,97.0,57.5,29.95,ENE,73,0.0,3.6,27,0.00,,---,0.00,VWS V14.00,2013-08-24 23:00:00,
2013-08-24 18:10:00,97.0,57.5,29.95,East,96,0.0,5.8,27,0.00,,---,0.00,VWS V14.00,2013-08-24 23:10:00,
2013-08-24 18:20:00,96.6,57.2,29.95,ENE,60,0.0,2.7,27,0.00,,---,0.00,VWS V14.00,2013-08-24 23:20:00,
2013-08-24 18:30:00,96.4,57.0,29.95,ENE,60,0.0,4.0,27,0.00,,---,0.00,VWS V14.00,2013-08-24 23:30:00,
2013-08-24 18:40:00,96.3,57.9,29.92,NE,49,0.0,3.6,28,0.00,,---,0.00,VWS V14.00,2013-08-24 23:40:00,
2013-08-24 18:50:00,96.1,57.7,29.92,NNE,27,0.0,4.0,28,0.00,,---,0.00,VWS V14.00,2013-08-24 23:50:00,
2013-08-24 19:00:00,95.7,58.4,29.92,NE,41,0.0,6.7,29,0.00,,---,0.00,VWS V14.00,2013-08-25 00:00:00,
2013-08-24 19:10:00,95.2,57.9,29.95,ENE,60,0.0,9.6,29,0.00,,---,0.00,VWS V14.00,2013-08-25 00:10:00,
2013-08-24 19:20:00,94.3,58.1,29.95,SSE,147,0.0,6.9,30,0.00,,---,0.00,VWS V14.00,2013-08-25 00:20:00,
2013-08-24 19:30:00,93.7,58.6,29.95,East,83,0.0,4.9,31,0.00,,---,0.00,VWS V14.00,2013-08-25 00:30:00,
2013-08-24 19:40:00,93.2,59.0,29.95,East,85,0.0,3.6,32,0.00,,---,0.00,VWS V14.00,2013-08-25 00:40:00,
2013-08-24 19:50:00,92.8,59.5,29.95,SE,128,0.0,4.5,33,0.00,,---,0.00,VWS V14.00,2013-08-25 00:50:00,
2013-08-24 20:00:00,92.3,59.9,29.95,South,183,0.0,3.6,34,0.00,,---,0.00,VWS V14.00,2013-08-25 01:00:00,
2013-08-24 20:10:00,91.9,61.2,29.95,SE,127,0.0,4.5,36,0.00,,---,0.00,VWS V14.00,2013-08-25 01:10:00,
2013-08-24 20:20:00,91.6,61.7,29.95,ESE,113,0.0,6.7,37,0.00,,---,0.00,VWS V14.00,2013-08-25 01:20:00,
2013-08-24 20:30:00,91.2,61.3,29.95,SSE,157,0.0,7.8,37,0.00,,---,0.00,VWS V14.00,2013-08-25 01:30:00,
2013-08-24 20:40:00,90.9,61.8,29.98,SE,145,0.0,2.7,38,0.00,,---,0.00,VWS V14.00,2013-08-25 01:40:00,
2013-08-24 20:50:00,90.3,62.0,29.98,SE,141,0.0,0.0,39,0.00,,---,0.00,VWS V14.00,2013-08-25 01:50:00,
2013-08-24 21:00:00,89.8,62.3,29.98,SSE,157,0.0,0.0,40,0.00,,---,0.00,VWS V14.00,2013-08-25 02:00:00,
2013-08-24 21:10:00,89.4,61.9,29.98,SSE,156,0.0,0.0,40,0.00,,---,0.00,VWS V14.00,2013-08-25 02:10:00,
2013-08-24 21:20:00,88.9,62.2,29.98,SSE,155,0.0,0.0,41,0.00,,---,0.00,VWS V14.00,2013-08-25 02:20:00,
2013-08-24 21:30:00,88.5,62.5,29.98,SSE,155,0.0,0.0,42,0.00,,---,0.00,VWS V14.00,2013-08-25 02:30:00,
2013-08-24 21:40:00,88.0,62.7,29.98,SSE,152,0.0,0.0,43,0.00,,---,0.00,VWS V14.00,2013-08-25 02:40:00,
2013-08-24 21:50:00,87.6,63.0,29.98,SSE,151,0.0,0.0,44,0.00,,---,0.00,VWS V14.00,2013-08-25 02:50:00,
2013-08-24 22:00:00,87.4,62.9,30.01,SSE,153,0.0,0.0,44,0.00,,---,0.00,VWS V14.00,2013-08-25 03:00:00,
2013-08-24 22:10:00,87.3,63.3,30.01,SSE,152,0.0,0.0,45,0.00,,---,0.00,VWS V14.00,2013-08-25 03:10:00,
2013-08-24 22:20:00,87.1,63.8,30.01,SSE,152,0.0,0.0,46,0.00,,---,0.00,VWS V14.00,2013-08-25 03:20:00,
2013-08-24 22:30:00,86.5,63.9,30.01,SSE,151,0.0,0.0,47,0.00,,---,0.00,VWS V14.00,2013-08-25 03:30:00,
2013-08-24 22:40:00,86.5,63.9,30.01,SSE,149,0.0,0.0,47,0.00,,---,0.00,VWS V14.00,2013-08-25 03:40:00,
2013-08-24 22:50:00,86.5,63.9,30.01,SE,139,0.0,0.0,47,0.00,,---,0.00,VWS V14.00,2013-08-25 03:50:00,
2013-08-24 23:00:00,86.5,64.5,30.01,SE,136,0.0,0.0,48,0.00,,---,0.00,VWS V14.00,2013-08-25 04:00:00,
2013-08-24 23:10:00,86.5,64.5,30.01,SE,133,0.0,0.0,48,0.00,,---,0.00,VWS V14.00,2013-08-25 04:10:00,
2013-08-24 23:20:00,86.2,64.2,30.01,SSE,147,0.0,0.0,48,0.00,,---,0.00,VWS V14.00,2013-08-25 04:20:00,
2013-08-24 23:30:00,86.2,64.8,30.01,SE,138,0.0,0.0,49,0.00,,---,0.00,VWS V14.00,2013-08-25 04:30:00,
2013-08-24 23:40:00,86.0,65.2,30.01,SE,136,0.0,0.0,50,0.00,,---,0.00,VWS V14.00,2013-08-25 04:40:00,
2013-08-24 23:50:00,85.6,64.9,30.01,SE,129,0.0,0.0,50,0.00,,---,0.00,VWS V14.00,2013-08-25 04:50:00,